Location: Lafig�re
(44.4503°N, 4.0357°E)
Time: 01:03:26
(UTC+00:00)

Tiros 1 - Pass Details

Date: 24 January 2021
Orbit: 630 x 664 km, 48.4° (Epoch: 06 March)

Event Time Altitude Azimuth Distance (km) Brightness Sun altitude
Rises 19:35:01 0° 269° (W) 2,923 11.7 -30.7°
Reaches altitude 10° 19:37:23 10° 274° (W) 2,012 10.6 -31.1°
Enters shadow 19:40:04 32° 290° (WNW) 1,081 8.7 -31.6°
